808  
ASUS42 KMLB 100411  
RWRMLB  
HOURLY WEATHER ROUNDUP AROUND FLORIDA  
NATIONAL WEATHER SERVICE OFFICE MELBOURNE FL  
1200 AM EDT WED AUG 10 2022  
 
CITY SKY/WX TMP DP RH WIND PRES REMARKS
 
MELBOURNE LGT RAIN 83 78 85 SE6 30.15S  
FORT PIERCE LGT RAIN 80 76 87 SE8 30.15R  
ORLANDO INTL MOCLDY 80 76 87 CALM 30.16S  
DAYTONA BEACH MOCLDY 80 77 90 CALM 30.17S  
VERO BEACH PTCLDY 81 80 97 S3 30.15F  

   
..ELSEWHERE ACROSS CENTRAL FLORIDA
 
 
 
CITY SKY/WX TMP DP RH WIND PRES REMARKS
 
PATRICK AFB PTCLDY 84 29 14 SE9 30.14R  
CAPE CANAVERAL CLEAR 81 78 91 SE6 30.15R  
SEBASTIAN LGT RAIN 80 75 86 E5 30.16S  
ORLANDO EXEC PTCLDY 81 76 84 CALM 30.17S  
LEESBURG PTCLDY 82 78 88 SE8 30.17F  
SANFORD PTCLDY 79 77 94 CALM 30.17R  
DELAND CLOUDY 77 75 95 CALM 30.19R  
WINTER HAVEN PTCLDY 77 73 87 NE6 30.16F  
KISSIMMEE PTCLDY 78 76 93 CALM 30.17S  
OKEECHOBEE PTCLDY 79 79 100 CALM 30.13F  
TAMPA PTCLDY 78 72 81 NE3 30.14F  

   
..NORTHERN FLORIDA
 
 
 
CITY SKY/WX TMP DP RH WIND PRES REMARKS
 
ST AUGUSTINE MOCLDY N/A N/A N/A S3 30.19R  
OCALA PTCLDY 78 74 87 CALM 30.18R  
GAINESVILLE MOCLDY 79 74 84 CALM 30.19S  
JACKSONVILLE MOCLDY 80 76 87 S3 30.17R  
TALLAHASSEE MOCLDY 73 71 93 S3 30.15R  

   
..ALONG THE SOUTHEAST COAST TO THE KEYS
 
 
 
CITY SKY/WX TMP DP RH WIND PRES REMARKS
 
STUART PTCLDY 82 73 74 MISG 30.16S  
WEST PALM BCH MOCLDY 84 75 74 SE10 30.14S  
MIAMI PTCLDY 84 77 79 E13 30.12S  
KEY WEST CLOUDY 84 79 85 SE12 30.10R  

   
..MARINE REPORTS
 
 
 
STATION/POSITION TIME TEMP WIND PRES WAVE SWELL
 
AIR SEA DIR/SP/G HT/PER HT/PER  
(UTC) (F) (DEG/KT/KT) (MB) (FT/S) (FT/S)  
ST AUGUSTINE FP 0400 82 83 170/ 6/ 7 1022.2R  
20NM E CAPE CANA 0340 84 83 130/ 12/ 14 1020.4  
120 E NEW SMYRNA 0340 84 86 130/ 12/ 14 1021.8S  
TRIDENT PIER 0324 83 87 140/ 4/ 8 N/A  
4NM E PORT CANAV 0326 83 N/A 2/ 4  
6NM NE FPR INLET 0326 81 N/A 3/ 5  
SETTLEMENT PT GB 0400 84 140/ 9/ 11 1021.0R  

 
 
 
CLICK HERE TO GO TO PREVIOUS BULLETINS.

The Nexlab FL Page Main Text Page